Location: Six Mile Lake
(44.9000°N, 79.7170°W)
Time: 23:56:38
(UTC-04:00)

BEESAT - Pass Details

Date: 02 July 2022
Orbit: 700 x 706 km, 98.6° (Epoch: 11 August)

Event Time Altitude Azimuth Distance (km) Brightness Sun altitude
Rises 21:54:32 0° 13° (NNE) 3,105 ? -7.2°
Reaches altitude 10° 21:56:48 10° 12° (NNE) 2,183 ? -7.5°
Maximum altitude 22:01:35 82° 286° (WNW) 717 ? -8.1°
Drops below altitude 10° 22:06:21 10° 199° (SSW) 2,170 ? -8.7°
Sets 22:08:35 0° 198° (SSW) 3,085 ? -9.0°
